SCP
0 0 0 0 0 0 0 0 0 0 0 1 1 0 0 0 0 0 0 0 0 0 0 0 0 0 1 1 1 1 1 1 0 0 1 0 0 0 0 0 0 0 0
0 0 0 0 0 0 0 0 0 0 0 1 1 0 0 0 0 0 0 0 0 0 0 0 0 0 1 1 1 1 1 1 1 1 1 1 0 0 0 0 0 0 0
0 0 0 0 0 0 0 0 0 0 0 0 1 0 0 0 0 0 0 0 0 0 0 0 0 0 0 1 1 1 1 1 1 1 1 1 0 0 0 0 0 0 0
0 0 0 0 0 0 0 0 0 0 0 0 0 0 0 0 0 0 0 0 0 0 0 0 0 0 0 1 1 1 1 1 1 0 1 0 0 0 0 0 0 0 0
0 0 0 0 0 0 0 0 0 0 0 0 0 0 0 0 0 0 0 0 0 0 0 0 0 0 0 0 1 1 1 1 1 0 0 0 0 0 0 0 0 0 0
0 0 0 0 0 0 0 0 0 0 0 0 0 0 0 0 0 0 0 0 0 0 0 0 0 0 0 0 1 1 1 1 1 0 0 0 0 0 0 0 0 0 0
0 0 0 0 0 0 0 0 0 0 0 0 0 0 0 0 0 0 0 0 0 0 0 0 0 0 0 0 1 1 1 1 0 0 0 0 0 0 0 0 0 0 0
0 0 0 0 0 0 0 0 0 0 0 0 0 0 0 0 0 0 0 0 0 0 0 0 0 0 0 0 0 0 1 1 0 0 0 0 0 0 0 0 0 0 0
0 0 0 0 0 0 0 0 0 0 0 0 0 0 0 0 0 0 0 0 0 0 0 0 0 0 0 0 0 0 0 0 0 0 0 0 0 0 0 0 0 0 0
0 0 0 0 0 0 0 0 0 0 0 0 0 0 0 0 0 0 0 0 0 0 0 0 0 0 0 0 0 0 0 0 0 0 0 0 0 0 0 0 0 0 0
0 0 0 0 0 0 0 0 0 0 0 0 0 0 0 0 0 0 0 0 0 0 0 0 0 0 0 0 0 0 0 0 0 0 0 0 0 0 0 0 0 0 0
0 0 0 0 0 0 0 0 0 0 0 0 0 0 0 0 0 0 0 0 0 0 0 0 0 0 0 0 0 0 0 0 0 0 0 0 0 0 0 0 0 0 0
0 0 0 0 0 0 0 0 0 0 0 0 0 0 0 0 0 0 0 0 0 0 0 0 0 0 0 0 0 0 0 0 0 0 0 0 0 0 0 0 0 0 0
0 0 0 0 0 0 0 0 0 0 0 0 0 0 0 0 0 0 0 0 0 0 0 0 0 0 0 0 0 0 0 0 0 0 0 0 0 0 0 0 0 0 0
0 0 0 0 0 0 0 0 0 0 0 0 0 0 0 0 0 0 0 0 0 0 0 0 0 0 0 0 0 0 0 0 0 0 0 0 1 1 0 0 1 1 1
0 0 0 0 0 0 0 0 0 0 0 0 0 0 0 0 0 0 0 0 0 0 0 0 0 0 0 0 0 0 0 0 0 0 0 0 1 1 1 1 1 1 1
0 0 0 0 0 0 0 0 0 0 0 0 0 0 0 0 0 0 0 0 0 0 0 0 0 0 0 0 0 0 0 0 0 0 0 0 0 1 1 1 1 1 1
0 0 1 1 1 0 0 0 0 0 0 0 0 0 0 0 0 0 0 0 0 0 0 0 0 0 0 0 0 0 0 0 0 0 0 0 0 0 1 1 1 1 1
0 0 1 1 1 1 1 0 0 0 0 0 0 0 0 0 0 0 0 0 0 0 0 0 0 0 0 0 0 0 0 0 0 0 0 0 0 0 0 1 1 1 1
1 1 1 1 1 1 1 0 0 0 0 0 0 0 0 0 0 0 0 0 0 0 0 0 0 0 0 0 0 0 0 0 0 0 0 0 0 0 0 0 0 1 1
1 1 1 2 2 1 1 1 0 0 0 0 0 0 0 0 0 0 0 0 0 0 0 0 0 0 0 0 0 0 0 0 0 0 0 0 0 0 0 0 0 0 0
1 1 2 2 2 2 1 1 1 0 0 0 0 0 0 0 0 0 0 0 0 0 0 0 0 0 0 0 0 0 0 0 0 0 0 0 0 0 0 0 0 0 0
2 2 2 3 2 2 1 1 1 0 0 0 0 0 0 0 0 0 0 0 0 0 0 0 0 0 0 0 0 0 0 0 0 0 0 0 0 0 0 0 0 0 0
3 3 3 3 2 2 1 1 1 0 0 0 0 0 0 0 0 0 0 0 0 0 0 0 0 0 0 0 0 0 0 0 0 0 0 0 0 0 0 0 0 0 0
5 5 5 4 3 2 1 1 1 1 0 0 0 0 0 0 0 0 0 0 0 0 0 0 0 0 0 0 0 0 0 0 0 0 0 0 0 0 0 0 0 0 0
5 5 5 4 3 2 1 1 1 1 0 0 0 0 0 0 0 0 0 0 0 0 0 0 0 0 0 0 0 0 0 0 0 0 0 0 0 0 0 0 0 0 0
Wind_Speed
5 6 12 13 12 12 12 12 12 12 12 12 12 13 13 12 11 10 10 9 9 9 8 8 7 7 7 7 7 8 9 10 9 8 8 7 5 6 7 7 6 4 7
8 7 13 13 12 11 11 11 11 11 12 11 12 12 12 12 11 11 10 9 9 8 8 8 7 7 7 7 8 9 10 10 9 8 8 6 6 8 8 7 6 4 8
11 8 11 14 13 12 11 11 11 11 11 11 12 12 12 11 10 10 10 9 9 8 8 7 7 7 7 7 7 8 8 9 9 9 8 4 5 8 8 8 7 8 9
12 8 9 14 13 12 12 12 12 11 12 12 12 12 11 11 10 9 9 9 9 9 8 8 7 7 8 7 7 7 7 7 9 9 4 3 3 7 8 8 8 9 9
10 8 9 15 14 13 12 12 12 12 12 12 12 12 11 10 10 9 9 9 9 9 8 8 8 8 8 8 7 7 7 9 10 7 4 4 3 6 7 7 7 8 9
9 7 9 15 14 13 12 12 12 12 12 12 12 12 11 10 9 8 8 9 9 9 8 9 9 9 9 9 9 8 9 11 8 4 4 3 2 5 6 6 6 7 7
9 7 7 15 14 13 12 12 12 13 13 13 12 12 11 10 10 9 8 9 9 8 8 8 9 9 10 9 9 8 10 10 6 4 3 3 1 5 6 5 5 6 7
9 8 6 14 14 13 13 13 13 13 13 13 12 12 11 10 10 9 8 8 7 7 6 7 8 9 9 8 8 8 9 8 6 4 3 2 2 5 5 5 5 5 6
7 7 5 6 9 13 13 13 13 13 13 13 12 12 11 10 10 9 8 7 6 5 5 5 7 8 8 8 7 7 9 9 5 3 3 2 3 4 5 5 5 5 6
6 6 6 5 5 6 7 13 14 13 13 13 12 12 11 10 9 9 7 6 6 5 5 5 6 8 9 8 8 9 9 7 4 3 2 2 3 3 4 4 4 4 5
6 5 5 5 5 5 5 9 11 12 12 11 10 12 9 4 4 5 6 6 6 5 4 4 5 7 8 9 9 9 7 3 3 3 2 3 2 1 3 3 3 3 4
7 7 6 6 6 5 5 4 4 4 5 5 4 5 4 3 3 4 5 7 6 4 3 3 3 6 6 4 6 7 3 3 3 2 3 4 1 1 1 2 2 3 3
8 8 8 7 6 6 4 4 3 3 4 4 5 5 4 3 2 2 1 1 1 3 3 4 4 3 2 2 3 3 3 3 2 3 4 4 2 3 3 3 3 4 4
7 9 9 9 7 6 5 4 4 4 4 4 4 6 4 3 2 2 2 1 2 2 2 2 2 1 2 3 3 3 3 2 2 2 4 5 2 3 4 5 4 3 3
8 9 8 9 7 6 5 4 4 4 5 5 5 5 5 4 4 3 2 2 2 2 2 1 1 2 3 3 3 3 3 3 3 3 3 8 6 2 2 5 5 4 3
10 10 9 9 8 7 6 5 5 4 4 4 4 5 6 4 4 4 3 3 2 2 2 2 2 3 2 3 3 3 2 2 3 3 3 5 9 6 2 3 5 4 4
11 11 10 10 9 8 7 7 5 5 5 5 4 5 6 5 5 4 4 3 3 3 3 2 3 2 2 2 2 2 2 1 2 3 4 3 4 7 5 4 5 5 6
9 10 12 11 10 9 7 6 4 5 5 5 4 5 6 6 6 5 4 4 3 3 3 2 3 2 2 2 2 1 1 1 1 2 3 3 3 4 7 8 7 6 6
11 11 12 11 12 11 8 6 4 4 5 4 4 5 6 6 6 5 4 4 4 3 3 3 2 3 3 2 2 1 0 0 0 1 2 3 3 4 4 8 11 9 6
10 10 11 11 11 9 6 4 3 3 3 3 4 5 6 6 6 5 4 4 5 4 3 3 3 2 2 2 2 2 2 1 1 1 1 2 2 3 4 4 4 6 9
10 10 12 11 10 9 6 5 4 3 3 3 3 4 5 6 6 5 4 4 5 5 5 6 4 3 2 2 3 2 2 2 1 0 1 1 1 1 2 3 3 3 3
15 13 12 12 10 10 6 4 2 3 2 2 2 3 5 5 5 5 5 5 5 4 5 5 4 3 2 3 3 2 1 3 2 1 1 1 2 1 0 1 2 2 2
13 13 10 10 8 6 5 4 3 3 2 2 2 2 3 5 5 5 6 5 5 6 6 6 6 6 4 3 2 4 4 4 2 2 1 1 2 2 2 1 1 1 1
6 8 10 10 10 7 5 3 2 3 3 4 3 2 3 5 5 5 6 6 5 5 5 6 6 4 5 4 2 1 2 3 2 1 2 1 2 3 3 2 2 2 2
8 10 11 12 13 10 5 2 2 2 2 1 2 3 3 3 4 5 5 5 5 5 6 6 7 6 5 5 4 3 2 1 2 2 2 2 2 3 3 3 3 3 3
10 10 10 12 12 8 3 2 4 4 4 3 3 3 3 2 3 4 5 4 4 3 4 5 6 7 6 5 4 4 4 4 4 3 2 2 3 3 3 3 3 4 4
Wind_Direction
174 186 165 149 144 142 143 141 135 129 124 120 117 117 117 115 112 110 108 105 102 100 104 106 104 105 104 105 112 125 133 135 135 136 138 139 143 148 143 123 108 113 124
153 172 163 153 148 146 145 143 140 135 130 127 123 121 120 118 115 115 117 114 110 104 105 110 105 102 99 97 102 116 128 133 129 122 120 122 126 128 126 118 111 112 115
148 165 162 158 155 154 152 147 142 139 137 135 132 127 124 122 121 120 119 117 114 107 103 103 102 99 94 91 96 107 119 128 125 111 98 82 109 119 118 112 110 109 110
153 161 161 162 160 158 157 153 148 145 143 140 139 136 133 132 130 126 122 117 111 105 101 97 95 94 90 88 93 105 113 118 119 106 78 60 86 117 119 118 118 116 112
155 157 168 166 165 163 160 155 152 150 146 145 144 140 139 137 134 131 129 123 113 105 97 90 86 85 79 73 75 94 111 115 110 97 80 62 57 119 117 121 122 123 119
157 158 174 171 172 169 164 158 155 151 149 148 146 142 140 138 135 133 133 128 120 112 100 88 80 74 64 59 67 87 101 103 97 91 87 73 57 115 116 119 130 134 131
159 163 180 179 178 173 168 164 161 156 152 151 150 147 145 142 138 135 133 131 126 118 105 90 80 72 61 53 59 83 96 98 92 85 82 73 83 116 119 124 137 139 137
163 164 181 187 182 177 172 169 168 163 160 156 155 152 150 148 144 143 139 136 131 122 107 90 78 73 63 51 52 79 97 89 83 69 64 52 103 117 123 125 131 142 145
157 158 175 182 182 180 175 172 172 169 166 162 159 158 155 154 153 151 150 146 142 136 121 97 81 72 63 53 60 82 95 85 72 55 50 34 99 112 117 119 117 131 143
155 159 162 164 169 171 171 176 175 171 169 166 162 162 160 162 161 160 157 156 155 152 136 109 91 78 62 57 74 81 86 70 56 45 25 12 70 105 116 114 110 119 130
160 156 154 156 162 161 165 180 175 170 171 167 164 163 159 149 148 153 160 167 163 154 133 111 94 82 70 64 82 82 72 48 42 27 0 344 20 90 116 126 127 129 133
178 175 165 163 164 163 171 162 150 152 158 150 146 146 134 129 140 146 181 179 172 155 117 94 73 69 73 66 80 80 61 39 28 6 337 328 290 211 150 156 168 173 160
184 183 180 175 171 169 164 150 147 144 143 142 144 140 134 127 133 136 145 191 116 97 56 35 34 41 66 79 87 83 70 46 15 352 327 315 261 217 192 190 190 186 185
177 189 185 182 175 174 161 158 156 154 153 151 150 147 142 140 150 157 162 149 95 85 90 54 26 26 132 119 109 98 84 66 29 355 332 350 306 223 193 184 175 179 201
188 192 187 181 175 169 161 162 164 163 162 159 157 161 159 158 169 173 174 164 141 126 136 114 79 112 128 128 119 111 94 71 47 26 356 9 13 8 190 181 167 176 200
197 194 184 181 176 169 171 172 173 164 158 160 170 175 171 168 170 173 180 178 163 153 161 140 116 115 121 128 124 118 98 64 47 39 25 11 14 18 59 141 147 142 138
199 192 184 184 175 175 179 181 176 170 163 171 181 183 182 179 175 174 180 188 175 154 156 137 114 100 111 117 129 136 122 61 36 28 27 24 10 15 33 108 120 124 123
198 191 189 187 178 181 182 182 174 173 173 178 178 183 194 192 179 174 184 197 168 148 152 161 145 134 141 144 145 148 151 146 41 22 26 27 27 22 27 64 92 106 119
205 194 189 185 179 182 181 178 175 173 183 181 176 184 196 198 186 182 193 193 161 153 163 179 162 151 161 163 149 96 76 164 88 31 27 23 33 37 31 43 62 68 88
208 195 190 185 177 172 164 155 157 174 192 184 185 192 190 192 186 182 189 186 166 161 171 177 163 145 143 148 114 64 24 15 57 47 7 357 18 42 46 37 35 46 61
203 192 189 184 174 165 159 163 169 189 189 194 198 191 188 185 179 174 175 174 172 179 181 168 148 152 140 132 101 44 358 18 51 23 19 321 322 13 53 53 36 26 31
202 195 187 185 175 173 172 155 147 143 157 170 170 183 187 183 178 176 173 174 175 170 164 162 151 150 158 157 136 121 354 333 315 332 354 243 257 298 303 87 73 46 27
201 189 178 169 155 149 128 108 83 78 79 118 177 185 183 177 175 171 174 172 176 171 176 176 170 163 169 181 171 152 161 214 276 308 292 259 241 250 258 232 162 115 70
184 150 136 130 114 98 97 122 163 182 191 204 195 183 166 172 174 175 173 176 176 174 178 184 180 172 162 173 186 186 153 151 151 288 305 287 249 236 237 232 210 199 188
92 102 109 109 101 93 93 135 211 222 200 177 175 178 169 165 170 169 169 174 178 182 184 180 181 187 185 181 174 164 153 130 128 156 262 289 292 254 233 228 219 212 208
74 86 95 95 89 90 98 175 209 205 190 180 193 186 168 148 158 172 173 179 183 186 191 191 192 195 200 197 193 185 172 166 173 167 196 244 260 270 243 229 221 217 210